IK5ZVE Weather Reports


time (UTC)temp
F
wind
direction
speed
knots
gust
knots
rain 1hr
in
rain 24hr
in
rain mn
in
humidity
%
barometer
mb
20260507205006 54 225 0.9 1.7 0.00 0.00 0.00 90 1012.9
20260507204006 55 225 0.0 1.7 0.00 0.00 0.00 89 1012.9
20260507203007 56 225 0.0 0.0 0.00 0.00 0.00 89 1013.0
20260507202007 56 225 0.0 0.9 0.00 0.00 0.00 88 1013.0
20260507201007 56 225 0.0 1.7 0.00 0.00 0.00 87 1012.6
20260507200006 57 225 0.0 0.0 0.00 0.00 0.00 87 1012.5
20260507195007 57 225 0.0 0.0 0.00 0.00 0.00 86 1012.7
20260507194007 57 225 0.0 0.0 0.00 0.00 0.00 85 1012.6
20260507193007 57 225 0.0 0.0 0.00 0.00 0.00 85 1012.7
20260507191006 59 225 0.0 0.0 0.00 0.00 0.00 83 1012.5
20260507190006 60 225 0.0 0.0 0.00 0.00 0.00 80 1012.6
20260507185007 62 225 0.0 1.7 0.00 0.00 0.00 77 1012.5
20260507183007 62 225 0.0 2.6 0.00 0.00 0.00 75 1012.4
20260507182007 63 270 0.9 2.6 0.00 0.00 0.00 74 1012.1
20260507181007 64 249 1.7 5.2 0.00 0.00 0.00 73 1012.3
20260507180006 65 248 1.7 7.0 0.00 0.00 0.00 70 1012.4
20260507175006 65 248 2.6 7.0 0.00 0.00 0.00 69 1012.4
20260507173007 66 250 3.5 6.1 0.00 0.00 0.00 66 1012.4
20260507172006 66 268 4.3 8.7 0.00 0.00 0.00 64 1012.2
20260507171006 67 270 6.1 8.7 0.00 0.00 0.00 61 1012.4
20260507165007 67 290 5.2 10.4 0.00 0.00 0.00 60 1012.1
20260507164007 67 226 4.3 12.2 0.00 0.00 0.00 61 1012.1
20260507162007 69 290 5.2 8.7 0.00 0.00 0.00 60 1012.3
20260507161006 69 250 4.3 7.8 0.00 0.00 0.00 59 1012.4
20260507160009 69 292 5.2 11.3 0.00 0.00 0.00 60 1012.3
20260507155007 69 289 5.2 8.7 0.00 0.00 0.00 59 1012.2
20260507154009 69 270 5.2 11.3 0.00 0.00 0.00 58 1012.5
20260507151008 69 290 4.3 10.4 0.00 0.00 0.00 59 1012.3
20260507145007 69 249 5.2 8.7 0.00 0.00 0.00 57 1012.5
20260507143008 69 271 6.1 11.3 0.00 0.00 0.00 57 1012.3
20260507142009 70 291 5.2 8.7 0.00 0.00 0.00 54 1012.7
20260507141008 70 248 6.1 10.4 0.00 0.00 0.00 52 1012.7
20260507140008 70 268 6.1 10.4 0.00 0.00 0.00 55 1012.8
20260507135007 71 248 5.2 12.2 0.00 0.00 0.00 54 1012.8
20260507134008 70 248 6.1 10.4 0.00 0.00 0.00 56 1012.9
20260507133008 70 271 5.2 12.2 0.00 0.00 0.00 55 1012.9
20260507132009 70 225 4.3 13.9 0.00 0.00 0.00 56 1012.9
20260507130007 71 312 4.3 8.7 0.00 0.00 0.00 53 1013.0
20260507125008 70 268 4.3 11.3 0.00 0.00 0.00 52 1013.1
20260507124007 70 268 4.3 10.4 0.00 0.00 0.00 53 1013.0
20260507123010 71 225 4.3 10.4 0.00 0.00 0.00 54 1013.0
20260507122007 70 292 4.3 10.4 0.00 0.00 0.00 57 1012.9
20260507121008 70 271 5.2 8.7 0.00 0.00 0.00 55 1013.1
20260507115008 69 270 6.1 12.2 0.00 0.00 0.00 58 1013.0
20260507114008 70 226 4.3 12.2 0.00 0.00 0.00 59 1013.2
20260507112008 69 226 3.5 8.7 0.00 0.20 0.00 62 1013.3
20260507111007 69 352 2.6 10.4 0.00 0.20 0.00 61 1013.2
20260507110009 69 225 5.2 6.1 0.00 0.21 0.00 60 1013.3
20260507105008 70 271 2.6 11.3 0.00 0.21 0.00 59 1013.4
20260507103007 69 266 3.5 8.7 0.00 0.21 0.00 61 1013.7
20260507102008 68 269 4.3 8.7 0.00 0.21 0.00 65 1013.8
20260507100008 67 248 1.7 5.2 0.00 0.21 0.00 69 1013.8
20260507095007 68 0 0.9 7.0 0.00 0.21 0.00 67 1013.7
20260507094008 69 21 1.7 4.3 0.00 0.21 0.00 67 1013.7
20260507092008 67 315 0.9 4.3 0.00 0.21 0.00 72 1013.6
20260507091007 70 90 0.9 1.7 0.00 0.21 0.00 67 1014.0
20260507090008 69 90 1.7 2.6 0.00 0.21 0.00 68 1013.9
20260507085007 69 110 0.9 2.6 0.00 0.21 0.00 70 1014.4
20260507084009 66 202 1.7 2.6 0.00 0.21 0.00 76 1014.0
20260507083007 68 135 0.9 4.3 0.00 0.21 0.00 71 1014.3
20260507082007 66 135 0.9 4.3 0.00 0.21 0.00 75 1014.0
20260507081008 65 135 0.9 2.6 0.00 0.21 0.00 77 1014.2
20260507080008 65 112 0.9 5.2 0.00 0.21 0.00 77 1014.1
20260507075008 64 92 0.9 1.7 0.00 0.21 0.00 77 1014.0
20260507074007 63 90 0.9 4.3 0.00 0.21 0.00 81 1014.1
20260507073009 62 68 0.9 2.6 0.00 0.21 0.00 79 1014.1
20260507072007 63 112 0.9 1.7 0.00 0.21 0.00 81 1014.1
20260507071008 61 152 0.9 4.3 0.00 0.21 0.00 82 1013.9
20260507070011 62 90 0.9 4.3 0.00 0.21 0.00 81 1013.7
20260507064008 59 68 1.7 2.6 0.00 0.22 0.00 85 1013.8
20260507061007 56 202 0.0 0.9 0.00 0.31 0.00 91 1013.7
20260507060008 56 202 0.0 1.7 0.00 0.32 0.00 95 1013.3
20260507055007 54 202 0.0 1.7 0.00 0.51 0.00 96 1013.4
20260507054007 55 202 0.0 0.9 0.00 0.70 0.00 97 1013.2
20260507053008 54 202 0.0 0.0 0.00 0.70 0.00 97 1013.0
20260507052007 54 202 0.0 0.0 0.00 0.73 0.00 97 1013.0
20260507051008 53 202 0.0 0.0 0.00 0.90 0.00 97 1013.0
20260507050007 53 202 0.0 0.0 0.00 0.93 0.00 97 1013.0
20260507045009 52 202 0.0 0.0 0.00 0.96 0.00 97 1012.8
20260507044008 51 202 0.0 0.0 0.00 0.97 0.00 97 1012.5
20260507043008 51 202 0.0 0.0 0.00 1.00 0.00 97 1012.9
20260507042007 51 202 0.0 0.0 0.00 1.12 0.00 97 1012.6
20260507040007 51 202 0.0 0.0 0.00 1.65 0.00 97 1012.6
20260507035008 51 202 0.0 0.0 0.00 1.88 0.00 97 1012.6
20260507034007 51 202 0.0 0.0 0.00 2.07 0.00 97 1012.5
20260507032008 52 202 0.0 0.0 0.00 2.16 0.00 97 1012.7
20260507031008 52 202 0.0 0.0 0.00 2.20 0.00 97 1012.7
20260507030008 52 202 0.0 0.0 0.00 2.26 0.00 97 1012.5
20260507024007 52 202 0.0 0.0 0.00 2.40 0.00 97 1012.6
20260507023007 52 202 0.0 0.0 0.00 2.43 0.00 97 1012.6
20260507022008 51 202 0.0 0.0 0.00 2.46 0.00 97 1012.6
20260507021008 51 202 0.0 0.0 0.00 2.47 0.00 97 1012.6
20260507020008 52 202 0.0 0.0 0.00 2.47 0.00 97 1012.8
20260507015007 52 202 0.0 0.9 0.00 2.47 0.00 97 1012.6
20260507014008 52 225 0.0 0.9 0.00 2.47 0.00 97 1012.4
20260507013008 51 225 0.0 0.0 0.00 2.47 0.00 97 1012.7
20260507012008 52 225 0.0 0.0 0.00 2.47 0.00 97 1012.8
20260507011007 52 225 0.0 0.0 0.00 2.47 0.00 97 1012.5
20260507010007 52 248 0.0 0.0 0.00 2.48 0.00 97 1012.6
20260507004007 53 248 0.0 0.0 0.00 2.50 0.00 97 1012.3
20260507003009 53 248 0.0 0.0 0.00 2.56 0.00 97 1012.7
20260507002008 53 248 0.0 0.0 0.00 2.61 0.00 97 1012.5
20260507001007 53 248 0.0 0.0 0.00 2.68 0.00 97 1012.6
20260507000008 53 225 0.0 0.0 0.00 2.74 0.00 97 1012.5
20260506235007 54 225 0.0 0.0 0.00 2.99 0.00 97 1012.4
20260506234007 54 248 0.0 0.0 0.00 3.20 0.00 97 1012.5
20260506233008 54 248 0.0 0.0 0.00 3.25 0.00 97 1012.4
20260506232008 54 248 0.0 0.0 0.00 3.25 0.00 97 1012.7
20260506231008 54 248 0.0 0.0 0.00 3.26 0.00 96 1012.3
20260506230007 55 248 0.0 0.0 0.00 3.35 0.00 96 1012.3
20260506225007 55 248 0.0 0.0 0.00 3.44 0.00 96 1012.1
20260506224010 55 248 0.0 0.0 0.00 3.44 0.00 96 1012.3
20260506223008 56 248 0.0 0.9 0.00 3.44 0.00 96 1012.4
20260506222008 56 248 0.9 0.9 0.00 3.44 0.00 96 1012.3
20260506221008 57 248 0.0 0.0 0.00 3.44 0.00 96 1012.1
20260506220007 57 248 0.0 0.9 0.00 3.44 0.00 96 1012.1
20260506215008 57 248 0.0 0.0 0.00 3.44 3.44 96 1012.0
20260506214009 57 248 0.0 0.9 0.00 3.44 3.44 96 1012.1
20260506213007 57 248 0.0 0.9 0.00 3.44 3.44 96 1012.1
20260506212007 57 248 0.0 0.9 0.00 3.44 3.44 95 1012.1
20260506211007 58 248 0.0 0.9 0.00 3.44 3.44 95 1011.9
20260506210008 58 248 0.0 1.7 0.00 3.44 3.44 95 1011.9